Time,TemperatureF,DewpointF,PressureIn,WindDirection,WindDirectionDegrees,WindSpeedMPH,WindSpeedGustMPH,Humidity,HourlyPrecipIn,Conditions,Clouds,dailyrainin,SoftwareType,DateUTC
2013-07-26 00:12:00,61.0,57.0,30.05,East,82,0.0,1.0,88,0.00,,,0.00,,2013-07-26 04:12:00,
2013-07-26 00:23:00,61.0,58.0,30.06,East,82,0.0,0.0,90,0.00,,,0.00,,2013-07-26 04:23:00,
2013-07-26 00:32:00,61.0,58.0,30.06,East,82,0.0,0.0,90,0.00,,,0.00,,2013-07-26 04:32:00,
2013-07-26 00:42:00,61.0,58.0,30.06,East,82,0.0,0.0,91,0.00,,,0.00,,2013-07-26 04:42:00,
2013-07-26 00:53:00,61.0,58.0,30.06,East,82,0.0,0.0,90,0.00,,,0.00,,2013-07-26 04:53:00,
2013-07-26 01:02:00,61.0,58.0,30.06,East,82,0.0,0.0,90,0.00,,,0.00,,2013-07-26 05:02:00,
2013-07-26 01:12:00,60.0,58.0,30.06,East,82,0.0,0.0,92,0.00,,,0.00,,2013-07-26 05:12:00,
2013-07-26 01:32:00,60.0,58.0,30.06,East,82,0.0,0.0,92,0.00,,,0.00,,2013-07-26 05:32:00,
2013-07-26 01:43:00,60.0,58.0,30.06,East,82,0.0,0.0,92,0.00,,,0.00,,2013-07-26 05:43:00,
2013-07-26 01:52:00,60.0,58.0,30.06,East,82,0.0,0.0,92,0.00,,,0.00,,2013-07-26 05:52:00,
2013-07-26 02:02:00,59.0,57.0,30.06,East,82,0.0,0.0,92,0.00,,,0.00,,2013-07-26 06:02:00,
2013-07-26 02:12:00,59.0,57.0,30.06,East,82,0.0,0.0,94,0.00,,,0.00,,2013-07-26 06:12:00,
2013-07-26 02:33:00,58.0,56.0,30.04,East,82,0.0,0.0,94,0.00,,,0.00,,2013-07-26 06:33:00,
2013-07-26 02:43:00,58.0,56.0,30.04,East,82,0.0,0.0,94,0.00,,,0.00,,2013-07-26 06:43:00,
2013-07-26 02:52:00,58.0,57.0,30.04,East,82,0.0,0.0,95,0.00,,,0.00,,2013-07-26 06:52:00,
2013-07-26 03:02:00,58.0,57.0,30.04,East,82,0.0,0.0,95,0.00,,,0.00,,2013-07-26 07:02:00,
2013-07-26 03:12:00,58.0,57.0,30.04,East,82,0.0,0.0,95,0.00,,,0.00,,2013-07-26 07:12:00,
2013-07-26 03:22:00,58.0,57.0,30.04,East,82,0.0,0.0,96,0.00,,,0.00,,2013-07-26 07:22:00,
2013-07-26 03:32:00,58.0,57.0,30.03,East,82,0.0,0.0,96,0.00,,,0.00,,2013-07-26 07:32:00,
2013-07-26 03:43:00,58.0,57.0,30.03,East,82,0.0,0.0,96,0.00,,,0.00,,2013-07-26 07:43:00,
2013-07-26 03:53:00,58.0,57.0,30.03,East,82,0.0,1.0,96,0.00,,,0.00,,2013-07-26 07:53:00,
2013-07-26 04:02:00,58.0,57.0,30.03,East,82,0.0,1.0,96,0.00,,,0.00,,2013-07-26 08:02:00,
2013-07-26 04:12:00,58.0,57.0,30.03,East,82,0.0,0.0,97,0.00,,,0.00,,2013-07-26 08:12:00,
2013-07-26 04:22:00,58.0,57.0,30.03,East,82,0.0,0.0,96,0.00,,,0.00,,2013-07-26 08:22:00,
2013-07-26 04:32:00,58.0,57.0,30.03,East,82,0.0,0.0,96,0.00,,,0.00,,2013-07-26 08:32:00,
2013-07-26 04:44:00,57.0,56.0,30.03,East,82,0.0,0.0,97,0.00,,,0.00,,2013-07-26 08:44:00,
2013-07-26 04:52:00,57.0,56.0,30.03,East,82,0.0,0.0,97,0.00,,,0.00,,2013-07-26 08:52:00,
2013-07-26 05:02:00,57.0,56.0,30.03,East,82,0.0,0.0,97,0.00,,,0.00,,2013-07-26 09:02:00,
2013-07-26 05:12:00,56.0,55.0,30.03,East,82,0.0,0.0,97,0.00,,,0.00,,2013-07-26 09:12:00,
2013-07-26 05:32:00,56.0,55.0,30.03,East,82,0.0,0.0,97,0.00,,,0.00,,2013-07-26 09:32:00,
2013-07-26 05:43:00,56.0,55.0,30.03,East,82,0.0,0.0,98,0.00,,,0.00,,2013-07-26 09:43:00,
2013-07-26 05:52:00,56.0,55.0,30.03,East,82,0.0,0.0,97,0.00,,,0.00,,2013-07-26 09:52:00,
2013-07-26 06:02:00,56.0,55.0,30.03,East,82,0.0,0.0,97,0.00,,,0.00,,2013-07-26 10:02:00,
2013-07-26 06:12:00,56.0,55.0,30.03,East,82,0.0,0.0,98,0.00,,,0.00,,2013-07-26 10:12:00,
2013-07-26 06:22:00,56.0,55.0,30.03,East,82,0.0,0.0,98,0.00,,,0.00,,2013-07-26 10:22:00,
2013-07-26 06:33:00,56.0,55.0,30.02,East,82,0.0,0.0,98,0.00,,,0.00,,2013-07-26 10:33:00,
2013-07-26 06:42:00,56.0,55.0,30.02,East,82,0.0,1.0,98,0.00,,,0.00,,2013-07-26 10:42:00,
2013-07-26 06:52:00,56.0,55.0,30.02,East,82,0.0,1.0,98,0.00,,,0.00,,2013-07-26 10:52:00,
2013-07-26 07:02:00,56.0,55.0,30.02,East,82,0.0,0.0,97,0.00,,,0.00,,2013-07-26 11:02:00,
2013-07-26 07:12:00,55.0,54.0,30.03,East,82,0.0,0.0,97,0.00,,,0.00,,2013-07-26 11:12:00,
2013-07-26 07:32:00,57.0,56.0,30.04,East,82,0.0,0.0,97,0.00,,,0.00,,2013-07-26 11:32:00,
2013-07-26 07:43:00,59.0,58.0,30.04,East,82,0.0,1.0,96,0.00,,,0.00,,2013-07-26 11:43:00,
2013-07-26 07:52:00,59.0,58.0,30.04,East,82,0.0,1.0,96,0.00,,,0.00,,2013-07-26 11:52:00,
2013-07-26 08:02:00,60.0,58.0,30.04,East,86,0.0,1.0,94,0.00,,,0.00,,2013-07-26 12:02:00,
2013-07-26 08:12:00,62.0,59.0,30.04,SSE,150,0.0,2.0,90,0.00,,,0.00,,2013-07-26 12:12:00,
2013-07-26 08:33:00,64.0,60.0,30.04,SSE,158,0.0,3.0,88,0.00,,,0.00,,2013-07-26 12:33:00,
2013-07-26 09:23:00,66.0,60.0,30.04,SW,229,2.0,6.0,82,0.00,,,0.00,,2013-07-26 13:23:00,
2013-07-26 09:32:00,67.0,61.0,30.04,SW,231,1.0,4.0,81,0.00,,,0.00,,2013-07-26 13:32:00,
2013-07-26 09:43:00,68.0,62.0,30.04,South,172,2.0,4.0,80,0.00,,,0.00,,2013-07-26 13:43:00,
2013-07-26 10:02:00,69.0,61.0,30.04,SW,229,2.0,8.0,76,0.00,,,0.00,,2013-07-26 14:02:00,
2013-07-26 10:32:00,71.0,61.0,30.03,SW,218,3.0,7.0,71,0.00,,,0.00,,2013-07-26 14:32:00,
2013-07-26 10:43:00,72.0,62.0,30.03,SW,219,2.0,5.0,72,0.00,,,0.00,,2013-07-26 14:43:00,
2013-07-26 10:53:00,72.0,62.0,30.03,SW,219,2.0,5.0,72,0.00,,,0.00,,2013-07-26 14:53:00,
2013-07-26 11:02:00,72.0,62.0,30.03,SSE,168,2.0,6.0,72,0.00,,,0.00,,2013-07-26 15:02:00,
2013-07-26 11:12:00,72.0,62.0,30.03,SSE,168,2.0,6.0,72,0.00,,,0.00,,2013-07-26 15:12:00,
2013-07-26 11:33:00,74.0,61.0,30.03,SSE,163,1.0,6.0,64,0.00,,,0.00,,2013-07-26 15:33:00,
2013-07-26 11:43:00,74.0,61.0,30.03,SSE,148,3.0,5.0,65,0.00,,,0.00,,2013-07-26 15:43:00,
2013-07-26 11:53:00,74.0,61.0,30.03,SSE,148,3.0,5.0,65,0.00,,,0.00,,2013-07-26 15:53:00,
2013-07-26 12:02:00,75.0,61.0,30.03,SSE,150,3.0,7.0,62,0.00,,,0.00,,2013-07-26 16:02:00,
2013-07-26 12:22:00,75.0,62.0,30.03,South,170,2.0,6.0,65,0.00,,,0.00,,2013-07-26 16:22:00,
2013-07-26 12:32:00,75.0,61.0,30.03,SSE,152,0.0,5.0,62,0.00,,,0.00,,2013-07-26 16:32:00,
2013-07-26 12:43:00,76.0,62.0,30.02,SE,146,5.0,8.0,61,0.00,,,0.00,,2013-07-26 16:43:00,
2013-07-26 13:02:00,76.0,62.0,30.02,South,173,2.0,7.0,61,0.00,,,0.00,,2013-07-26 17:02:00,
2013-07-26 13:33:00,75.0,60.0,30.01,SSW,197,3.0,8.0,59,0.00,,,0.00,,2013-07-26 17:33:00,
2013-07-26 13:43:00,76.0,62.0,30.01,SE,125,2.0,7.0,61,0.00,,,0.00,,2013-07-26 17:43:00,
2013-07-26 13:53:00,76.0,62.0,30.01,SE,125,2.0,7.0,61,0.00,,,0.00,,2013-07-26 17:53:00,
2013-07-26 14:03:00,77.0,60.0,29.99,South,190,6.0,12.0,55,0.00,,,0.00,,2013-07-26 18:03:00,
2013-07-26 14:12:00,77.0,60.0,29.99,South,190,6.0,12.0,55,0.00,,,0.00,,2013-07-26 18:12:00,
2013-07-26 14:33:00,76.0,61.0,29.99,South,184,2.0,6.0,59,0.00,,,0.00,,2013-07-26 18:33:00,
2013-07-26 14:44:00,76.0,59.0,29.98,SSE,148,2.0,8.0,56,0.00,,,0.00,,2013-07-26 18:44:00,
2013-07-26 14:52:00,76.0,59.0,29.98,SSE,148,2.0,8.0,56,0.00,,,0.00,,2013-07-26 18:52:00,
2013-07-26 15:03:00,76.0,59.0,29.98,SSE,148,2.0,8.0,56,0.00,,,0.00,,2013-07-26 19:03:00,
2013-07-26 15:12:00,77.0,61.0,29.98,SW,225,4.0,12.0,58,0.00,,,0.00,,2013-07-26 19:12:00,
2013-07-26 15:32:00,77.0,60.0,29.97,SSW,194,3.0,10.0,56,0.00,,,0.00,,2013-07-26 19:32:00,
2013-07-26 15:43:00,77.0,62.0,29.96,SSE,165,5.0,10.0,60,0.00,,,0.00,,2013-07-26 19:43:00,
2013-07-26 15:52:00,77.0,62.0,29.96,SSE,165,5.0,10.0,60,0.00,,,0.00,,2013-07-26 19:52:00,
2013-07-26 16:02:00,77.0,62.0,29.96,SSW,211,4.0,9.0,60,0.00,,,0.00,,2013-07-26 20:02:00,
2013-07-26 16:12:00,77.0,61.0,29.96,SSE,148,4.0,7.0,58,0.00,,,0.00,,2013-07-26 20:12:00,
2013-07-26 16:32:00,78.0,64.0,29.95,West,264,2.0,8.0,62,0.00,,,0.00,,2013-07-26 20:32:00,
2013-07-26 16:43:00,79.0,61.0,29.94,South,180,4.0,8.0,55,0.00,,,0.00,,2013-07-26 20:43:00,
2013-07-26 16:53:00,79.0,61.0,29.94,South,180,4.0,8.0,55,0.00,,,0.00,,2013-07-26 20:53:00,
2013-07-26 17:02:00,79.0,62.0,29.93,WSW,238,4.0,9.0,56,0.00,,,0.00,,2013-07-26 21:02:00,
2013-07-26 17:12:00,79.0,62.0,29.93,SSW,212,4.0,10.0,57,0.00,,,0.00,,2013-07-26 21:12:00,
2013-07-26 17:32:00,79.0,62.0,29.93,SSW,205,6.0,13.0,56,0.00,,,0.00,,2013-07-26 21:32:00,
2013-07-26 18:02:00,79.0,63.0,29.92,WSW,238,5.0,12.0,58,0.00,,,0.00,,2013-07-26 22:02:00,
2013-07-26 18:33:00,79.0,61.0,29.91,SSW,195,6.0,12.0,55,0.00,,,0.00,,2013-07-26 22:33:00,
2013-07-26 18:43:00,78.0,61.0,29.91,SW,217,4.0,10.0,56,0.00,,,0.00,,2013-07-26 22:43:00,
2013-07-26 18:53:00,78.0,61.0,29.91,SW,217,4.0,10.0,56,0.00,,,0.00,,2013-07-26 22:53:00,
2013-07-26 19:02:00,76.0,61.0,29.91,WSW,253,4.0,10.0,60,0.00,,,0.00,,2013-07-26 23:02:00,
2013-07-26 19:12:00,76.0,62.0,29.91,SW,231,2.0,5.0,62,0.00,,,0.00,,2013-07-26 23:12:00,
2013-07-26 19:32:00,76.0,62.0,29.90,SW,233,1.0,5.0,62,0.00,,,0.00,,2013-07-26 23:32:00,
2013-07-26 19:43:00,76.0,62.0,29.91,WSW,242,2.0,3.0,62,0.00,,,0.00,,2013-07-26 23:43:00,
2013-07-26 19:53:00,76.0,62.0,29.91,WSW,242,2.0,3.0,62,0.00,,,0.00,,2013-07-26 23:53:00,
2013-07-26 20:02:00,76.0,64.0,29.90,SSW,203,0.0,3.0,67,0.00,,,0.00,,2013-07-27 00:02:00,
2013-07-26 20:12:00,76.0,64.0,29.90,SSE,167,1.0,2.0,67,0.00,,,0.00,,2013-07-27 00:12:00,
2013-07-26 20:22:00,76.0,64.0,29.90,SSE,167,1.0,2.0,67,0.00,,,0.00,,2013-07-27 00:22:00,
2013-07-26 20:32:00,74.0,64.0,29.90,South,188,1.0,3.0,71,0.00,,,0.00,,2013-07-27 00:32:00,
2013-07-26 20:43:00,74.0,64.0,29.90,SSE,163,1.0,4.0,72,0.00,,,0.00,,2013-07-27 00:43:00,
2013-07-26 20:53:00,74.0,64.0,29.90,SSE,163,1.0,4.0,72,0.00,,,0.00,,2013-07-27 00:53:00,
2013-07-26 21:02:00,73.0,64.0,29.90,SSE,158,2.0,4.0,74,0.00,,,0.00,,2013-07-27 01:02:00,
2013-07-26 21:12:00,73.0,65.0,29.90,SW,233,2.0,3.0,75,0.00,,,0.00,,2013-07-27 01:12:00,
2013-07-26 21:22:00,73.0,64.0,29.90,SW,219,1.0,4.0,73,0.00,,,0.00,,2013-07-27 01:22:00,
2013-07-26 21:32:00,73.0,64.0,29.90,SW,219,1.0,4.0,73,0.00,,,0.00,,2013-07-27 01:32:00,
2013-07-26 21:43:00,73.0,64.0,29.90,SW,219,1.0,4.0,73,0.00,,,0.00,,2013-07-27 01:43:00,
2013-07-26 21:53:00,72.0,62.0,29.90,SW,217,1.0,3.0,72,0.00,,,0.00,,2013-07-27 01:53:00,
2013-07-26 22:02:00,72.0,62.0,29.90,SW,217,1.0,3.0,72,0.00,,,0.00,,2013-07-27 02:02:00,
2013-07-26 22:12:00,71.0,63.0,29.89,South,172,2.0,4.0,75,0.00,,,0.00,,2013-07-27 02:12:00,
2013-07-26 22:22:00,70.0,62.0,29.89,WSW,243,1.0,2.0,77,0.00,,,0.00,,2013-07-27 02:22:00,
2013-07-26 22:32:00,70.0,62.0,29.89,WSW,243,1.0,2.0,77,0.00,,,0.00,,2013-07-27 02:32:00,
2013-07-26 22:43:00,70.0,63.0,29.89,SW,235,1.0,2.0,78,0.00,,,0.00,,2013-07-27 02:43:00,
2013-07-26 22:53:00,70.0,63.0,29.89,SW,235,1.0,2.0,78,0.00,,,0.00,,2013-07-27 02:53:00,
2013-07-26 23:03:00,70.0,63.0,29.89,SW,235,1.0,4.0,79,0.00,,,0.00,,2013-07-27 03:03:00,
2013-07-26 23:12:00,70.0,63.0,29.89,SW,231,1.0,3.0,79,0.00,,,0.00,,2013-07-27 03:12:00,
2013-07-26 23:22:00,70.0,63.0,29.89,SW,231,1.0,3.0,79,0.00,,,0.00,,2013-07-27 03:22:00,
2013-07-26 23:33:00,70.0,63.0,29.88,SW,226,2.0,3.0,79,0.00,,,0.00,,2013-07-27 03:33:00,
2013-07-26 23:44:00,70.0,63.0,29.88,South,179,1.0,3.0,78,0.00,,,0.00,,2013-07-27 03:44:00,